Time,TemperatureF,DewpointF,PressureIn,WindDirection,WindDirectionDegrees,WindSpeedMPH,WindSpeedGustMPH,Humidity,HourlyPrecipIn,Conditions,Clouds,dailyrainin,SoftwareType,DateUTC
2013-04-06 00:12:00,63.5,20.5,29.83,SSW,202,0.0,-999.0,19,-99.99,,,0.00,Acu-Link.com,2013-04-06 06:12:00,
2013-04-06 00:27:00,61.7,21.4,29.84,NNW,337,0.0,-999.0,21,-99.99,,,0.00,Acu-Link.com,2013-04-06 06:27:00,
2013-04-06 00:43:00,59.7,21.9,29.84,NNE,22,0.0,-999.0,23,-99.99,,,0.00,Acu-Link.com,2013-04-06 06:43:00,
2013-04-06 00:58:00,58.1,22.5,29.84,NE,45,0.0,-999.0,25,-99.99,,,0.00,Acu-Link.com,2013-04-06 06:58:00,
2013-04-06 01:13:00,57.2,22.6,29.85,WSW,247,1.1,-999.0,26,-99.99,,,0.00,Acu-Link.com,2013-04-06 07:13:00,
2013-04-06 01:28:00,56.7,23.1,29.85,ENE,67,0.0,-999.0,27,-99.99,,,0.00,Acu-Link.com,2013-04-06 07:28:00,
2013-04-06 01:58:00,58.6,21.9,29.86,SSE,157,2.7,-999.0,24,-99.99,,,0.00,Acu-Link.com,2013-04-06 07:58:00,
2013-04-06 02:29:00,59.4,21.6,29.86,SW,225,0.0,-999.0,23,-99.99,,,0.00,Acu-Link.com,2013-04-06 08:29:00,
2013-04-06 02:44:00,58.1,21.5,29.86,WNW,292,0.0,-999.0,24,-99.99,,,0.00,Acu-Link.com,2013-04-06 08:44:00,
2013-04-06 03:00:00,58.6,21.9,29.85,NNW,337,0.0,-999.0,24,-99.99,,,0.00,Acu-Link.com,2013-04-06 09:00:00,
2013-04-06 03:15:00,57.0,21.5,29.86,NW,315,2.2,-999.0,25,-99.99,,,0.00,Acu-Link.com,2013-04-06 09:15:00,
2013-04-06 03:30:00,56.3,21.9,29.86,North,0,0.0,-999.0,26,-99.99,,,0.00,Acu-Link.com,2013-04-06 09:30:00,
2013-04-06 03:45:00,54.5,22.9,29.86,ESE,112,0.0,-999.0,29,-99.99,,,0.00,Acu-Link.com,2013-04-06 09:45:00,
2013-04-06 04:00:00,53.1,22.5,29.86,NE,45,0.0,-999.0,30,-99.99,,,0.00,Acu-Link.com,2013-04-06 10:00:00,
2013-04-06 04:15:00,52.2,24.0,29.86,WSW,247,0.0,-999.0,33,-99.99,,,0.00,Acu-Link.com,2013-04-06 10:15:00,
2013-04-06 04:30:00,50.9,23.5,29.86,ESE,112,0.0,-999.0,34,-99.99,,,0.00,Acu-Link.com,2013-04-06 10:30:00,
2013-04-06 04:46:00,50.5,25.2,29.86,SSE,157,0.0,-999.0,37,-99.99,,,0.00,Acu-Link.com,2013-04-06 10:46:00,
2013-04-06 05:16:00,48.6,24.8,29.86,NNW,337,0.0,-999.0,39,-99.99,,,0.00,Acu-Link.com,2013-04-06 11:16:00,
2013-04-06 05:31:00,48.6,24.2,29.87,NW,315,0.0,-999.0,38,-99.99,,,0.00,Acu-Link.com,2013-04-06 11:31:00,
2013-04-06 05:46:00,48.6,25.4,29.86,NNW,337,0.0,-999.0,40,-99.99,,,0.00,Acu-Link.com,2013-04-06 11:46:00,
2013-04-06 06:01:00,48.0,24.8,29.87,NE,45,0.0,-999.0,40,-99.99,,,0.00,Acu-Link.com,2013-04-06 12:01:00,
2013-04-06 06:16:00,47.5,25.0,29.87,East,90,0.0,-999.0,41,-99.99,,,0.00,Acu-Link.com,2013-04-06 12:16:00,
2013-04-06 06:46:00,47.5,26.1,29.88,SE,135,0.0,-999.0,43,-99.99,,,0.00,Acu-Link.com,2013-04-06 12:46:00,
2013-04-06 07:17:00,49.1,27.0,29.89,West,270,0.0,-999.0,42,-99.99,,,0.00,Acu-Link.com,2013-04-06 13:17:00,
2013-04-06 07:32:00,55.4,28.9,29.89,East,90,0.0,-999.0,36,-99.99,,,0.00,Acu-Link.com,2013-04-06 13:32:00,
2013-04-06 07:47:00,58.8,29.8,29.91,SSE,157,0.0,-999.0,33,-99.99,,,0.00,Acu-Link.com,2013-04-06 13:47:00,
2013-04-06 08:17:00,65.3,28.6,29.91,SW,225,0.0,-999.0,25,-99.99,,,0.00,Acu-Link.com,2013-04-06 14:17:00,
2013-04-06 08:32:00,67.3,28.2,29.91,SE,135,1.7,-999.0,23,-99.99,,,0.00,Acu-Link.com,2013-04-06 14:32:00,
2013-04-06 08:48:00,68.9,28.5,29.92,NE,45,0.0,-999.0,22,-99.99,,,0.00,Acu-Link.com,2013-04-06 14:48:00,
2013-04-06 09:03:00,69.8,29.2,29.92,NE,45,0.0,-999.0,22,-99.99,,,0.00,Acu-Link.com,2013-04-06 15:03:00,
2013-04-06 09:18:00,68.2,30.0,29.92,NNW,337,1.1,-999.0,24,-99.99,,,0.00,Acu-Link.com,2013-04-06 15:18:00,
2013-04-06 09:33:00,68.4,29.2,29.92,East,90,0.0,-999.0,23,-99.99,,,0.00,Acu-Link.com,2013-04-06 15:33:00,
2013-04-06 09:48:00,70.2,30.7,29.93,NE,45,1.7,-999.0,23,-99.99,,,0.00,Acu-Link.com,2013-04-06 15:48:00,
2013-04-06 10:03:00,70.0,30.5,29.92,WSW,247,0.0,-999.0,23,-99.99,,,0.00,Acu-Link.com,2013-04-06 16:03:00,
2013-04-06 11:04:00,76.3,32.3,29.91,SW,225,3.2,-999.0,20,-99.99,,,0.00,Acu-Link.com,2013-04-06 17:04:00,
2013-04-06 11:19:00,75.6,31.7,29.91,WSW,247,6.3,-999.0,20,-99.99,,,0.00,Acu-Link.com,2013-04-06 17:19:00,
2013-04-06 11:34:00,77.4,33.2,29.91,SW,225,4.7,-999.0,20,-99.99,,,0.00,Acu-Link.com,2013-04-06 17:34:00,
2013-04-06 11:49:00,81.7,32.6,29.90,SW,225,7.3,-999.0,17,-99.99,,,0.00,Acu-Link.com,2013-04-06 17:49:00,
2013-04-06 12:04:00,82.6,31.8,29.90,West,270,7.8,-999.0,16,-99.99,,,0.00,Acu-Link.com,2013-04-06 18:04:00,
2013-04-06 12:34:00,80.6,31.7,29.89,West,270,4.2,-999.0,17,-99.99,,,0.00,Acu-Link.com,2013-04-06 18:34:00,
2013-04-06 12:49:00,84.2,31.5,29.88,WSW,247,8.9,-999.0,15,-99.99,,,0.00,Acu-Link.com,2013-04-06 18:49:00,
2013-04-06 13:04:00,83.1,32.2,29.87,West,270,3.2,-999.0,16,-99.99,,,0.00,Acu-Link.com,2013-04-06 19:04:00,
2013-04-06 13:20:00,85.5,30.8,29.86,WSW,247,5.8,-999.0,14,-99.99,,,0.00,Acu-Link.com,2013-04-06 19:20:00,
2013-04-06 13:35:00,82.2,28.3,29.85,NW,315,3.2,-999.0,14,-99.99,,,0.00,Acu-Link.com,2013-04-06 19:35:00,
2013-04-06 13:50:00,86.5,27.9,29.85,West,270,11.9,-999.0,12,-99.99,,,0.00,Acu-Link.com,2013-04-06 19:50:00,
2013-04-06 14:05:00,86.4,27.8,29.84,West,270,7.3,-999.0,12,-99.99,,,0.00,Acu-Link.com,2013-04-06 20:05:00,
2013-04-06 14:20:00,87.1,28.3,29.83,WSW,247,10.4,-999.0,12,-99.99,,,0.00,Acu-Link.com,2013-04-06 20:20:00,
2013-04-06 14:35:00,86.9,28.2,29.83,WSW,247,8.9,-999.0,12,-99.99,,,0.00,Acu-Link.com,2013-04-06 20:35:00,
2013-04-06 14:50:00,86.2,27.6,29.81,NNW,337,1.7,-999.0,12,-99.99,,,0.00,Acu-Link.com,2013-04-06 20:50:00,
2013-04-06 15:05:00,86.5,27.9,29.81,WSW,247,6.3,-999.0,12,-99.99,,,0.00,Acu-Link.com,2013-04-06 21:05:00,
2013-04-06 15:21:00,86.7,28.0,29.80,WSW,247,4.2,-999.0,12,-99.99,,,0.00,Acu-Link.com,2013-04-06 21:21:00,
2013-04-06 15:36:00,86.9,26.1,29.79,WNW,292,2.2,-999.0,11,-99.99,,,0.00,Acu-Link.com,2013-04-06 21:36:00,
2013-04-06 16:06:00,86.7,23.6,29.77,WNW,292,7.8,-999.0,10,-99.99,,,0.00,Acu-Link.com,2013-04-06 22:06:00,
2013-04-06 16:36:00,86.9,26.1,29.76,WSW,247,9.4,-999.0,11,-99.99,,,0.00,Acu-Link.com,2013-04-06 22:36:00,
2013-04-06 17:06:00,86.5,23.5,29.74,WSW,247,7.8,-999.0,10,-99.99,,,0.00,Acu-Link.com,2013-04-06 23:06:00,
2013-04-06 17:52:00,86.0,27.5,29.74,WNW,292,5.8,-999.0,12,-99.99,,,0.00,Acu-Link.com,2013-04-06 23:52:00,
2013-04-06 18:07:00,86.7,28.0,29.74,West,270,5.8,-999.0,12,-99.99,,,0.00,Acu-Link.com,2013-04-07 00:07:00,
2013-04-06 18:22:00,84.4,26.2,29.74,West,270,5.8,-999.0,12,-99.99,,,0.00,Acu-Link.com,2013-04-07 00:22:00,
2013-04-06 18:52:00,81.5,24.0,29.74,WNW,292,2.7,-999.0,12,-99.99,,,0.00,Acu-Link.com,2013-04-07 00:52:00,
2013-04-06 19:07:00,79.3,24.2,29.74,WSW,247,5.8,-999.0,13,-99.99,,,0.00,Acu-Link.com,2013-04-07 01:07:00,
2013-04-06 19:22:00,77.7,24.7,29.74,WNW,292,2.2,-999.0,14,-99.99,,,0.00,Acu-Link.com,2013-04-07 01:22:00,
2013-04-06 19:37:00,76.3,25.3,29.75,WNW,292,3.2,-999.0,15,-99.99,,,0.00,Acu-Link.com,2013-04-07 01:37:00,
2013-04-06 19:53:00,74.5,23.8,29.75,WNW,292,0.0,-999.0,15,-99.99,,,0.00,Acu-Link.com,2013-04-07 01:53:00,
2013-04-06 20:08:00,72.9,24.1,29.74,WSW,247,2.2,-999.0,16,-99.99,,,0.00,Acu-Link.com,2013-04-07 02:08:00,
2013-04-06 20:23:00,71.1,24.1,29.75,West,270,0.0,-999.0,17,-99.99,,,0.00,Acu-Link.com,2013-04-07 02:23:00,
2013-04-06 20:38:00,69.1,25.1,29.76,NNW,337,0.0,-999.0,19,-99.99,,,0.00,Acu-Link.com,2013-04-07 02:38:00,
2013-04-06 20:53:00,68.4,24.5,29.77,North,0,2.2,-999.0,19,-99.99,,,0.00,Acu-Link.com,2013-04-07 02:53:00,
2013-04-06 21:08:00,67.3,24.9,29.77,NNE,22,1.7,-999.0,20,-99.99,,,0.00,Acu-Link.com,2013-04-07 03:08:00,
2013-04-06 21:23:00,65.8,23.6,29.77,NW,315,0.0,-999.0,20,-99.99,,,0.00,Acu-Link.com,2013-04-07 03:23:00,
2013-04-06 21:38:00,64.6,24.9,29.77,SW,225,0.0,-999.0,22,-99.99,,,0.00,Acu-Link.com,2013-04-07 03:38:00,
2013-04-06 22:24:00,61.0,26.8,29.78,West,270,0.0,-999.0,27,-99.99,,,0.00,Acu-Link.com,2013-04-07 04:24:00,
2013-04-06 22:39:00,60.8,27.5,29.79,South,180,4.2,-999.0,28,-99.99,,,0.00,Acu-Link.com,2013-04-07 04:39:00,
2013-04-06 22:54:00,60.8,23.8,29.79,East,90,2.2,-999.0,24,-99.99,,,0.00,Acu-Link.com,2013-04-07 04:54:00,
2013-04-06 23:09:00,60.1,25.1,29.79,NNW,337,0.0,-999.0,26,-99.99,,,0.00,Acu-Link.com,2013-04-07 05:09:00,
2013-04-06 23:24:00,60.3,25.3,29.79,NE,45,1.1,-999.0,26,-99.99,,,0.00,Acu-Link.com,2013-04-07 05:24:00,
2013-04-06 23:39:00,60.1,25.1,29.79,NE,45,0.0,-999.0,26,-99.99,,,0.00,Acu-Link.com,2013-04-07 05:39:00,